This is the latest recevied weather packets stored in our database for station/object EB1BCG-1. If no packets are shown the sender has not sent any weather packets the latest 1 day(s).
| Time | Temp. | Humidity | Pressure | Rain* | Wind** | Luminosity | Snow |
|---|---|---|---|---|---|---|---|
| 1778061027 | 13.89° C | 55% | 1012 hPa | 0 mm | 0 m/s | - | - |
| 1778059813 | 11.11° C | 58% | 1012 hPa | 0 mm | 0 m/s | - | - |
| 1778057993 | 10° C | 66% | 1012 hPa | 0 mm | 0 m/s | - | - |
| 1778057382 | 10.56° C | 67% | 1012 hPa | 0 mm | 0 m/s | - | - |
| 1778056168 | 8.33° C | 75% | 1012 hPa | 0 mm | 0 m/s | - | - |
| 1778055561 | 7.78° C | 79% | 1012.2 hPa | 0 mm | 0 m/s | - | - |
| 1778054353 | 6.67° C | 91% | 1012.3 hPa | 0 mm | 0 m/s | - | - |
| 1778053739 | 6.11° C | 99% | 1012.3 hPa | 0 mm | 0 m/s | - | - |
| 1778051918 | 4.44° C | 99% | 1012.5 hPa | 0 mm | 0 m/s | - | - |
| 1778051313 | 3.89° C | 99% | 1012.6 hPa | 0 mm | 0 m/s | - | - |
| 1778050703 | 3.89° C | 99% | 1012.6 hPa | 0 mm | 0 m/s | - | - |
| 1778050095 | 3.33° C | 99% | 1012.8 hPa | 0 mm | 0 m/s | - | - |
| 1778049488 | 2.78° C | 99% | 1012.8 hPa | 0 mm | 0 m/s | - | - |
| 1778048880 | 2.22° C | 99% | 1012.6 hPa | 0 mm | 0 m/s | - | - |
| 1778045844 | 0.56° C | 99% | 1012.4 hPa | 0 mm | 0 m/s | - | - |
| 1778045237 | 0.56° C | 99% | 1012.3 hPa | 0 mm | 0 m/s | - | - |
| 1778044633 | 0.56° C | 99% | 1012.2 hPa | 0 mm | 0 m/s | - | - |
| 1778043416 | 0.56° C | 99% | 1012.2 hPa | 0 mm | 0 m/s | - | - |
| 1778042202 | 1.11° C | 99% | 1012.2 hPa | 0 mm | 0 m/s | - | - |
| 1778041595 | 1.11° C | 99% | 1012.2 hPa | 0 mm | 0 m/s | - | - |
| 1778040988 | 1.11° C | 99% | 1012.1 hPa | 0 mm | 0 m/s | - | - |
| 1778040380 | 1.67° C | 99% | 1012.1 hPa | 0 mm | 0 m/s | - | - |
| 1778039167 | 1.67° C | 99% | 1012.1 hPa | 0 mm | 0 m/s | - | - |
| 1778038560 | 2.22° C | 99% | 1012.2 hPa | 0 mm | 0 m/s | - | - |
| 1778037953 | 1.67° C | 99% | 1012.3 hPa | 0 mm | 0 m/s | - | - |
* Rain latest hour (hover to see other rain measurements)
** Current wind speed in m/s (hover to see current wind gust speed)